Weather Roundup
Issued by NWS Springfield, MO

Home | Current Version | Previous Version | Text Only | Print | Product List | Glossary On
Versions: 1 2 3 4 5 6 7 8 9 10 11 12 13 14 15 16 17 18 19 20 21 22 23 24 25 26 27 28 29 30 31 32 33 34 35 36 37 38 39 40 41 42 43 44 45 46 47 48 49 50
000
NZUS99 KSGF 231859
HRRSGF

HOURLY WEATHER
NATIONAL WEATHER SERVICE SPRINGFIELD MO
200 PM CDT WED JUL 23 2014

......SGF CWA......

CITY           SKY/WX    TMP DP  RH WIND       PRES   REMARKS
SPRINGFIELD    PTSUNNY   88  76  67 N13       30.08S HX  99
JOPLIN         CLOUDY    72  68  87 NW10      30.16F
WEST PLAINS    MOSUNNY   91  78  65 N12       30.03F HX 106
ROLLA            N/A     91  65  41 N15       30.06S HX  93
OSAGE BEACH    SUNNY     91  66  43 N12G17    30.07F HX  94
BRANSON        PTSUNNY   97  73  46 N9          N/A  HX 107

......SURROUNDING SGF CWA......

CITY           SKY/WX    TMP DP  RH WIND       PRES   REMARKS
CHANUTE        CLOUDY    74  69  85 E8        30.12F
PARSONS        LGT RAIN  71  68  90 E5        30.12F
COFFEYVILLE    LGT RAIN  72  71  97 E6        30.15R
EMPORIA        CLOUDY    82  70  66 NE10      30.15R
SILOAM SPRINGS PTSUNNY   72  61  68 NW52G61   30.16R THUNDER
HARRISON AR    MOSUNNY   95  77  55 NW8       30.02F HX 109
NEAR YELLVILLE SUNNY     97  75  49 NW5       29.98F HX 109

......KANSAS AND MISSOURI......

CITY           SKY/WX    TMP DP  RH WIND       PRES   REMARKS
KANSAS CTY INT MOSUNNY   84  65  52 N17       30.16F
DOWNTOWN KC    SUNNY     88  65  46 NE15      30.13F HX  90
COLUMBIA       PTSUNNY   86  69  56 N15       30.11S HX  90
SEDALIA        MOSUNNY   87  69  54 N13       30.13F HX  91
ST JOSEPH      SUNNY     84  67  56 N12       30.17F
ST LOUIS       CLOUDY    82  69  64 NE10      30.07S
SPIRIT OF STL  LGT RAIN  78  70  76 NE9       30.07R
KIRKSVILLE     MOSUNNY   83  63  50 NE9G17    30.18S
WICHITA        PTSUNNY   82  67  60 N13       30.17R
TOPEKA         SUNNY     90  63  40 NE16G23   30.14F HX  91
OLATHE         SUNNY     87  63  44 N10G21    30.14F

......TENNESSEE......

CITY           SKY/WX    TMP DP  RH WIND       PRES   REMARKS
MEMPHIS        MOSUNNY   89  73  59 VRB6      30.03F HX  97
NASHVILLE      PTSUNNY   90  70  51 S6        30.02F HX  95

......ARKANSAS.......

CITY           SKY/WX    TMP DP  RH WIND       PRES   REMARKS
FAYETTEVILLE   PTSUNNY   91  77  63 NW10      30.07F HX 104
FT SMITH       PTSUNNY   94  77  57 W9G17     30.01F HX 108
LITTLE ROCK    MOSUNNY   90  74  59 W6        30.00F HX  99

......OKLAHOMA.......

CITY           SKY/WX    TMP DP  RH WIND       PRES   REMARKS
TULSA          CLOUDY    80  70  71 N14G25    30.10R THUNDER
PONCA CITY     CLOUDY    81  73  76 NE6       30.12F
MCALESTER      MOSUNNY   92  76  59 W8        30.08F HX 104
OKLAHOMA CITY  PTSUNNY   97  72  44 VRB5      30.12F HX 105

......IOWA............

CITY           SKY/WX    TMP DP  RH WIND       PRES   REMARKS
DES MOINES     PTSUNNY   82  60  47 NE6       30.20F
QUAD CITIES    SUNNY     80  56  43 N8G18     30.17S

......ILLINOIS........

CITY           SKY/WX    TMP DP  RH WIND       PRES   REMARKS
QUINCY         MOSUNNY   81  66  60 NE16      30.13S
CHICAGO        MOSUNNY   74  44  34 N21G31    30.15F



USA.gov is the U.S. government's official web portal to all federal, state and local government web resources and services.